sat.trackr.live / text

‹ back to catalog

POEM

NORAD 52939 · 2022-072E

PAYLOAD ACTIVE UNKNOWN

§ Identity

Operator
Country
IND
Launch date
2022-06-30
Launch site
SRILR
Launch vehicle
Mass (kg)
RCS (m²)

External: N2YO · Heavens-Above · Gunter

§ Orbital elements

Epoch: 2026-09-19T20:55:40.039680Z

Period
94.42 min
Inclination
9.9514°
Eccentricity
0.0022534
Mean motion
15.25022289 rev/d
Perigee alt
475.2 km
Apogee alt
506.2 km
Semi-major
6,868.9 km
B*
1.7913e-4
RAAN
70.3279°
Arg perigee
168.3395°
Mean anomaly
191.7344°
Rev number
23,398

§ Raw data

POEM1 52939U 22072E   26262.87199120  .00005611  00000+0  17913-3 0  99922 52939   9.9514  70.3279 0022534 168.3395 191.7344 15.25022289233987

JSON: /api/v1/satellites/52939 · /tle

For live sub-satellite position, see the globe view (requires WebGL).

§ Visibility from observer

Set your observer location to see the next 7 days of passes ≥ 10°. The values pass through the URL so the page stays shareable.

No JS? Fill the form by hand. The geolocation button needs JavaScript.